Retour au catalogue

JILIN-01-07

ActifScienceSSO
NORAD 43159·PAYLOAD·🇨🇳 China

Lancé Jan 19, 2018 depuis Jiuquan Satellite Launch Center

Loading…

Prochains Passages (prochaines 24 heures)

TLE

FraisSource: Space-Track

Époque: Sep 14, 2026, 23:10 UTC

1 43159U 18008E   26257.96586544  .00008019  00000-0  23058-3 0  9997
2 43159  97.1756 275.5758 0010090  94.4597 265.7801 15.36006720478778

Suivez JILIN-01-07 en temps réel avec AllMySat

Download on the App Store